Simultaneous Nadir Overpasses (SNOs) Predictions

Prediction of SNOs between NOAA-19 and NPP Satellite Orbit:

Table of predicted SNOs for the next 14.0 days since TLE Epoch: 11/13/2020
Index Date (NOAA-19) Time (NOAA-19) Lat,Lon (NOAA-19) SZA (NOAA-19 ) Date (NPP) Time (NPP) Lat,Lon (NPP) SZA (NPP ) Distance(km) Time Diff (sec)
1 11/20/2020 20:18:53 -78.90, 25.42 80.14 11/20/2020 20:19:55 -78.89, 25.29 80.16 3.01 62
2 11/20/2020 21:09:48 78.88,-167.49 99.87 11/20/2020 21:10:41 78.91,-167.53 99.88 3.71 53
3 11/20/2020 22:00:54 -78.89, -0.21 80.13 11/20/2020 22:01:25 -78.90, -0.11 80.14 2.35 31
4 11/20/2020 22:51:48 78.89, 167.13 99.89 11/20/2020 22:52:11 78.92, 167.06 99.91 2.85 23
5 11/20/2020 23:42:54 -78.90, -25.59 80.11 11/20/2020 23:42:55 -78.90, -25.52 80.11 1.32 1
6 11/21/2020 00:33:48 78.91, 141.76 99.91 11/21/2020 00:33:41 78.92, 141.65 99.93 2.54 7
7 11/21/2020 01:24:54 -78.92, -50.96 80.09 11/21/2020 01:24:25 -78.91, -50.93 80.09 1.32 29
8 11/21/2020 02:15:48 78.93, 116.38 99.93 11/21/2020 02:15:11 78.93, 116.24 99.95 2.95 37
9 11/21/2020 03:06:54 -78.93, -76.34 80.07 11/21/2020 03:05:55 -78.91, -76.34 80.07 2.35 59
10 11/21/2020 03:57:49 78.91, 90.75 99.94 11/21/2020 03:56:41 78.93, 90.83 99.98 3.13 68
